Date String (YYYY-MM-DD hh:mm:ss) UTC,Instrument flags,Ambient pressure (hPa),Sample flow (lpm),Bypass flow (lpm),Sample temperature (°C),Ambient temperature (°C),ASC tube jacket temperature (°C),LED temperature (°C),Box temperature (°C),Sample RH (%),Span deviation,Mass concentration (μg/m³),Mass concentration (μg/m³),Mass concentration (μg/m³)
DateTimeUTC,F1_M11,P_M11,Q1_M11,Q2_M11,T1_M11,T2_M11,T3_M11,T4_M11,T5_M11,U1_M11,ZSPAN_M11,X2_M11,X0_M11,X1_M11
2023-02-01 09:00:00,,0824.9,5.01,0.00,22.5,21.9,00.0,31.3,24.3,06.9,0001.0,0009.51,0016.57,0008.63
2023-02-01 09:01:00,,0824.8,4.99,0.00,22.5,21.5,00.0,31.3,24.2,06.8,0000.6,0009.47,0016.75,0008.50
2023-02-01 09:02:00,,0824.6,4.99,0.00,22.5,21.3,00.0,31.3,24.1,06.8,0000.7,0009.43,0016.75,0008.44
2023-02-01 09:03:00,,0824.7,5.03,0.00,22.4,21.1,00.0,31.3,24.1,06.7,0000.9,0009.75,0017.29,0008.74
2023-02-01 09:04:00,,0824.6,4.99,0.00,22.4,20.9,00.0,31.3,24.1,06.7,0001.0,0010.34,0018.58,0009.28
2023-02-01 09:05:00,,0824.6,5.01,0.00,22.4,20.6,00.0,31.3,24.0,06.8,0000.5,0010.62,0019.34,0009.55
2023-02-01 09:06:00,,0824.6,4.98,0.00,22.3,20.5,00.0,31.3,23.9,06.7,0000.1,0010.62,0019.19,0009.55
2023-02-01 09:07:00,,0824.9,5.05,0.00,22.3,20.4,00.0,31.3,23.9,06.7,-000.1,0010.67,0019.79,0009.56
2023-02-01 09:08:00,,0824.6,4.97,0.00,22.3,20.7,00.0,31.2,24.0,06.8,-000.2,0010.91,0020.28,0009.73
2023-02-01 09:09:00,,0824.7,5.01,0.00,22.3,21.8,00.0,31.2,24.2,06.8,0000.4,0011.18,0020.33,0009.97
2023-02-01 09:10:00,,0824.8,5.01,0.00,22.5,22.8,00.0,31.2,24.5,06.8,0000.8,0011.45,0020.89,0010.20
2023-02-01 09:11:00,,0824.6,4.98,0.00,22.6,22.8,00.0,31.2,24.5,06.8,0000.3,0011.61,0021.45,0010.36
2023-02-01 09:12:00,,0824.6,5.03,0.00,22.5,22.1,00.0,31.3,24.4,06.8,0000.9,0011.66,0021.44,0010.46
2023-02-01 09:13:00,,0824.6,5.01,0.00,22.5,21.5,00.0,31.3,24.2,06.9,0000.7,0011.75,0021.54,0010.57
2023-02-01 09:14:00,,0824.5,5.00,0.00,22.4,21.2,00.0,31.3,24.1,06.9,0000.7,0011.85,0021.61,0010.67
2023-02-01 09:15:00,,0824.6,5.02,0.00,22.4,21.0,00.0,31.3,24.1,06.9,0000.7,0011.92,0021.38,0010.74
2023-02-01 09:16:00,,0824.5,4.97,0.00,22.4,20.8,00.0,31.3,24.0,07.0,0001.4,0012.03,0020.71,0010.88
2023-02-01 09:17:00,,0824.7,4.94,0.00,22.3,20.4,00.0,31.3,23.9,07.0,0001.5,0012.19,0021.22,0011.07
2023-02-01 09:18:00,,0824.5,5.00,0.00,22.2,20.0,00.0,31.3,23.7,07.0,0000.9,0012.44,0021.21,0011.31
2023-02-01 09:19:00,,0824.4,4.94,0.00,22.2,19.9,00.0,31.2,23.6,07.1,0000.7,0012.33,0020.64,0011.26
2023-02-01 09:20:00,,0824.7,4.94,0.00,22.2,20.6,00.0,31.2,23.8,07.1,0000.6,0011.80,0020.16,0010.77
2023-02-01 09:21:00,,0824.7,5.04,0.00,22.3,21.8,00.0,31.1,24.1,07.1,0000.1,0011.53,0020.37,0010.56
2023-02-01 09:22:00,,0824.6,4.96,0.00,22.4,22.6,00.0,31.1,24.3,07.0,0000.8,0011.69,0020.74,0010.70
2023-02-01 09:23:00,,0824.7,5.01,0.00,22.4,22.4,00.0,31.2,24.3,07.0,0001.1,0011.61,0021.25,0010.64
2023-02-01 09:24:00,,0824.8,4.99,0.00,22.4,21.9,00.0,31.2,24.2,07.0,0000.8,0011.43,0021.14,0010.42
2023-02-01 09:25:00,,0824.8,4.98,0.00,22.4,21.5,00.0,31.2,24.1,06.9,0001.1,0011.38,0021.65,0010.33
2023-02-01 09:26:00,,0824.7,5.05,0.00,22.4,21.1,00.0,31.2,24.0,06.9,0001.7,0011.29,0021.23,0010.28
2023-02-01 09:27:00,,0824.7,5.01,0.00,22.3,20.9,00.0,31.2,24.0,06.9,0001.4,0011.24,0021.16,0010.23
2023-02-01 09:28:00,,0824.8,4.97,0.00,22.3,20.6,00.0,31.2,23.8,06.9,0001.7,0011.21,0020.85,0010.20
2023-02-01 09:29:00,,0824.6,4.96,0.00,22.2,20.3,00.0,31.2,23.7,07.0,0002.8,0011.19,0020.70,0010.19
2023-02-01 09:30:00,,0824.7,5.09,0.00,22.2,20.2,00.0,31.2,23.7,07.0,0002.9,0011.24,0021.27,0010.26
2023-02-01 09:31:00,,0824.8,5.03,0.00,22.1,20.2,00.0,31.1,23.7,07.0,0002.4,0011.63,0022.85,0010.59
2023-02-01 09:32:00,,0824.7,5.01,0.00,22.1,20.2,00.0,31.1,23.7,07.0,0002.4,0011.89,0022.71,0010.84
2023-02-01 09:33:00,,0824.7,5.00,0.00,22.1,21.1,00.0,31.1,23.9,07.1,0002.2,0011.64,0021.63,0010.61
2023-02-01 09:34:00,,0824.8,4.97,0.00,22.2,22.3,00.0,31.0,24.2,07.0,0001.7,0011.52,0021.55,0010.50
2023-02-01 09:35:00,,0824.6,4.98,0.00,22.4,23.0,00.0,31.1,24.4,07.0,0002.0,0011.53,0022.32,0010.51
2023-02-01 09:36:00,,0824.6,5.00,0.00,22.4,22.6,00.0,31.1,24.4,07.0,0001.9,0011.27,0021.40,0010.31
2023-02-01 09:37:00,,0824.6,5.00,0.00,22.4,22.1,00.0,31.2,24.3,06.8,0001.6,0011.09,0020.94,0010.12
2023-02-01 09:38:00,,0824.6,4.98,0.00,22.4,21.7,00.0,31.2,24.2,06.8,0001.2,0010.84,0020.71,0009.88
2023-02-01 09:39:00,,0824.7,4.97,0.00,22.4,21.3,00.0,31.2,24.1,06.8,0000.9,0010.44,0020.25,0009.48
2023-02-01 09:40:00,,0824.4,4.99,0.00,22.4,21.0,00.0,31.2,24.0,06.9,0000.0,0009.89,0019.63,0008.98
2023-02-01 09:41:00,,0824.7,4.99,0.00,22.3,20.9,00.0,31.2,24.0,07.0,0000.5,0009.36,0018.26,0008.48
2023-02-01 09:42:00,,0824.5,4.99,0.00,22.3,20.8,00.0,31.2,24.0,06.9,0001.0,0009.08,0016.53,0008.26
2023-02-01 09:43:00,,0824.5,5.00,0.00,22.3,20.7,00.0,31.2,24.0,06.9,0000.9,0008.72,0015.78,0007.93
2023-02-01 09:44:00,,0824.5,5.00,0.00,22.2,20.6,00.0,31.2,23.9,07.0,0001.0,0008.40,0015.25,0007.60
2023-02-01 09:45:00,,0824.5,4.99,0.00,22.2,20.6,00.0,31.2,23.9,07.0,0001.1,0008.20,0014.12,0007.39
2023-02-01 09:46:00,,0824.6,5.00,0.00,22.2,20.5,00.0,31.1,23.9,07.0,0000.6,0008.14,0013.36,0007.34
2023-02-01 09:47:00,,0824.7,5.00,0.00,22.2,20.9,00.0,31.1,23.9,07.0,0000.2,0008.30,0013.76,0007.46
2023-02-01 09:48:00,,0824.6,5.01,0.00,22.3,22.0,00.0,31.1,24.2,06.9,0000.0,0008.29,0014.06,0007.44
2023-02-01 09:49:00,,0824.6,5.00,0.00,22.4,22.9,00.0,31.1,24.4,06.8,0000.1,0008.16,0013.81,0007.35
2023-02-01 09:50:00,,0824.7,4.99,0.00,22.5,22.8,00.0,31.2,24.5,06.8,0000.2,0008.21,0013.80,0007.40
2023-02-01 09:51:00,,0824.4,5.00,0.00,22.5,22.3,00.0,31.2,24.4,06.8,0000.8,0008.39,0013.73,0007.57
2023-02-01 09:52:00,,0824.4,5.00,0.00,22.5,21.8,00.0,31.2,24.3,06.9,0001.7,0008.69,0014.20,0007.83
2023-02-01 09:53:00,,0824.5,5.02,0.00,22.5,21.5,00.0,31.2,24.2,07.0,0001.9,0008.85,0014.63,0008.00
2023-02-01 09:54:00,,0824.5,5.02,0.00,22.4,21.2,00.0,31.3,24.1,06.9,0001.9,0009.05,0014.86,0008.20
2023-02-01 09:55:00,,0824.5,4.99,0.00,22.4,21.0,00.0,31.3,24.1,06.9,0001.7,0009.33,0015.23,0008.49
2023-02-01 09:56:00,,0824.4,4.97,0.00,22.4,20.7,00.0,31.2,24.0,06.9,0001.5,0009.57,0015.53,0008.73
2023-02-01 09:57:00,,0824.5,5.03,0.00,22.3,20.5,00.0,31.2,23.9,06.9,0001.5,0009.76,0016.44,0008.90
2023-02-01 09:58:00,,0824.5,5.00,0.00,22.3,20.4,00.0,31.2,23.9,06.9,0001.8,0009.87,0016.56,0008.99
2023-02-01 09:59:00,,0824.5,5.01,0.00,22.2,20.4,00.0,31.2,23.8,06.9,0002.4,0010.00,0016.49,0009.11
